When you browse on this site, cookies collect data to enhance your experience and personalize the content and advertising you see.
Visit our Privacy Policy to learn more. By continuing to use the site, you agree to this use of cookies and data.

Hourly Weather Albany

Today, 11 July, Saturday

Time Temperature Precipitation Wind Pressure Humidity
00:00 +7°C° 0 mm 2 mps 770 mmHg 85%
01:00 +6°C° 0 mm 2 mps 770 mmHg 86%
02:00 +6°C° 0 mm 2 mps 770 mmHg 86%
03:00 +6°C° 0 mm 2 mps 769 mmHg 87%
04:00 +6°C° 0 mm 2 mps 769 mmHg 88%
05:00 +4°C° 0 mm 3 mps 769 mmHg 89%
06:00 +5°C° 0 mm 2 mps 769 mmHg 89%
07:00 +5°C° 0 mm 2 mps 769 mmHg 88%
08:00 +6°C° 0 mm 2 mps 769 mmHg 87%
09:00 +8°C° 0 mm 3 mps 769 mmHg 80%
10:00 +10°C° 0 mm 3 mps 769 mmHg 72%
11:00 +12°C° 0 mm 4 mps 769 mmHg 64%
12:00 +13°C° 0 mm 4 mps 768 mmHg 61%
13:00 +14°C° 0 mm 3 mps 767 mmHg 59%
14:00 +14°C° 0 mm 3 mps 767 mmHg 56%
15:00 +13°C° 0 mm 3 mps 767 mmHg 60%
16:00 +12°C° 0 mm 3 mps 766 mmHg 64%
17:00 +11°C° 0 mm 3 mps 766 mmHg 68%
18:00 +10°C° 0 mm 3 mps 766 mmHg 71%
19:00 +9°C° 0 mm 3 mps 766 mmHg 74%
20:00 +7°C° 0 mm 4 mps 767 mmHg 77%
21:00 +6°C° 0 mm 4 mps 766 mmHg 78%
22:00 +7°C° 0 mm 3 mps 766 mmHg 79%
23:00 +5°C° 0 mm 3 mps 765 mmHg 80%

Tomorrow, 12 July, Sunday

Time Temperature Precipitation Wind Pressure Humidity
00:00 +5°C° 0 mm 4 mps 765 mmHg 80%
01:00 +5°C° 0 mm 4 mps 764 mmHg 79%
02:00 +5°C° 0 mm 4 mps 764 mmHg 79%
03:00 +5°C° 0 mm 4 mps 764 mmHg 76%
04:00 +5°C° 0 mm 4 mps 763 mmHg 74%
05:00 +5°C° 0 mm 5 mps 763 mmHg 72%
06:00 +5°C° 0 mm 5 mps 763 mmHg 70%
07:00 +6°C° 0 mm 5 mps 763 mmHg 67%
08:00 +6°C° 0 mm 5 mps 763 mmHg 65%
09:00 +8°C° 0 mm 5 mps 762 mmHg 59%
10:00 +12°C° 0 mm 5 mps 762 mmHg 53%
11:00 +14°C° 0 mm 5 mps 761 mmHg 47%
12:00 +15°C° 0 mm 5 mps 760 mmHg 46%
13:00 +16°C° 0 mm 6 mps 759 mmHg 45%
14:00 +17°C° 0 mm 6 mps 758 mmHg 45%
15:00 +16°C° 0 mm 5 mps 758 mmHg 49%
16:00 +14°C° 0 mm 5 mps 758 mmHg 53%
17:00 +13°C° 0 mm 5 mps 757 mmHg 58%
18:00 +12°C° 0 mm 5 mps 757 mmHg 59%
19:00 +10°C° 0 mm 6 mps 756 mmHg 59%
20:00 +10°C° 0 mm 6 mps 756 mmHg 60%
21:00 +10°C° 0 mm 6 mps 755 mmHg 57%
22:00 +10°C° 0 mm 7 mps 755 mmHg 53%
23:00 +11°C° 0 mm 7 mps 755 mmHg 50%

Day after tomorrow, 13 July, Monday

Time Temperature Precipitation Wind Pressure Humidity
00:00 +11°C° 0.3 mm 7 mps 754 mmHg 62%
01:00 +10°C° 0.3 mm 8 mps 754 mmHg 74%
02:00 +10°C° 0.3 mm 8 mps 754 mmHg 87%
03:00 +10°C° 0 mm 7 mps 754 mmHg 88%
04:00 +10°C° 0 mm 7 mps 754 mmHg 90%
05:00 +10°C° 0 mm 6 mps 754 mmHg 92%
06:00 +10°C° 0 mm 6 mps 755 mmHg 92%
07:00 +10°C° 0 mm 6 mps 755 mmHg 91%
08:00 +10°C° 0 mm 6 mps 755 mmHg 90%
09:00 +13°C° 0 mm 6 mps 755 mmHg 83%
10:00 +14°C° 0 mm 6 mps 755 mmHg 75%
11:00 +16°C° 0 mm 6 mps 755 mmHg 68%
12:00 +17°C° 0 mm 6 mps 754 mmHg 63%
13:00 +19°C° 0 mm 6 mps 754 mmHg 59%
14:00 +19°C° 0 mm 6 mps 753 mmHg 55%
15:00 +19°C° 0 mm 6 mps 753 mmHg 59%
16:00 +17°C° 0 mm 5 mps 753 mmHg 63%
17:00 +16°C° 0 mm 5 mps 753 mmHg 68%
18:00 +15°C° 0 mm 5 mps 753 mmHg 74%
19:00 +14°C° 0 mm 5 mps 752 mmHg 79%
20:00 +13°C° 0 mm 5 mps 752 mmHg 85%
21:00 +13°C° 0 mm 5 mps 752 mmHg 85%
22:00 +13°C° 0 mm 5 mps 751 mmHg 86%
23:00 +14°C° 0 mm 6 mps 751 mmHg 86%

14 July, Tuesday

Time Temperature Precipitation Wind Pressure Humidity
00:00 +14°C° 0.1 mm 6 mps 750 mmHg 86%
01:00 +14°C° 0.1 mm 6 mps 749 mmHg 86%
02:00 +15°C° 0.1 mm 7 mps 748 mmHg 86%
03:00 +12°C° 0.6 mm 7 mps 748 mmHg 87%
04:00 +11°C° 0.6 mm 7 mps 748 mmHg 88%
05:00 +10°C° 0.6 mm 7 mps 749 mmHg 88%
06:00 +10°C° 0.3 mm 8 mps 750 mmHg 88%
07:00 +10°C° 0.3 mm 8 mps 750 mmHg 87%
08:00 +10°C° 0.3 mm 9 mps 751 mmHg 87%
09:00 +11°C° 0.2 mm 9 mps 752 mmHg 79%
10:00 +11°C° 0.2 mm 8 mps 753 mmHg 72%
11:00 +12°C° 0.2 mm 8 mps 754 mmHg 65%
12:00 +12°C° 0.2 mm 8 mps 754 mmHg 63%
13:00 +14°C° 0.2 mm 7 mps 754 mmHg 60%
14:00 +14°C° 0.2 mm 7 mps 754 mmHg 58%
15:00 +13°C° 0.1 mm 6 mps 755 mmHg 61%
16:00 +12°C° 0.1 mm 5 mps 755 mmHg 65%
17:00 +12°C° 0.1 mm 5 mps 756 mmHg 68%
18:00 +10°C° 0.1 mm 5 mps 756 mmHg 71%
19:00 +9°C° 0.1 mm 5 mps 757 mmHg 74%
20:00 +8°C° 0.1 mm 5 mps 757 mmHg 77%
21:00 +8°C° 0 mm 5 mps 757 mmHg 78%
22:00 +8°C° 0 mm 5 mps 757 mmHg 80%
23:00 +8°C° 0 mm 5 mps 758 mmHg 81%

15 July, Wednesday

Time Temperature Precipitation Wind Pressure Humidity
00:00 +8°C° 0 mm 5 mps 757 mmHg 82%
01:00 +8°C° 0 mm 5 mps 757 mmHg 83%
02:00 +8°C° 0 mm 5 mps 757 mmHg 83%
03:00 +8°C° 0 mm 5 mps 757 mmHg 82%
04:00 +9°C° 0 mm 5 mps 757 mmHg 81%
05:00 +10°C° 0 mm 6 mps 756 mmHg 80%
06:00 +10°C° 0 mm 6 mps 756 mmHg 80%
07:00 +10°C° 0 mm 6 mps 756 mmHg 80%
08:00 +10°C° 0 mm 6 mps 757 mmHg 80%
09:00 +11°C° 0 mm 7 mps 757 mmHg 75%
10:00 +12°C° 0 mm 7 mps 756 mmHg 71%
11:00 +15°C° 0 mm 8 mps 756 mmHg 67%
12:00 +15°C° 0 mm 8 mps 756 mmHg 68%
13:00 +15°C° 0 mm 8 mps 755 mmHg 69%
14:00 +15°C° 0 mm 8 mps 755 mmHg 70%
15:00 +15°C° 0 mm 7 mps 755 mmHg 71%
16:00 +15°C° 0 mm 7 mps 755 mmHg 73%
17:00 +15°C° 0 mm 7 mps 755 mmHg 75%
18:00 +14°C° 0 mm 6 mps 755 mmHg 78%
19:00 +14°C° 0 mm 6 mps 755 mmHg 82%
20:00 +13°C° 0 mm 6 mps 755 mmHg 85%
21:00 +13°C° 0 mm 6 mps 755 mmHg 85%
22:00 +12°C° 0 mm 7 mps 755 mmHg 86%
23:00 +11°C° 0 mm 7 mps 755 mmHg 86%

16 July, Thursday

Time Temperature Precipitation Wind Pressure Humidity
00:00 +12°C° 0 mm 7 mps 755 mmHg 86%
01:00 +12°C° 0 mm 7 mps 754 mmHg 85%
02:00 +12°C° 0 mm 7 mps 754 mmHg 84%
03:00 +12°C° 0 mm 7 mps 754 mmHg 85%
04:00 +12°C° 0 mm 7 mps 753 mmHg 86%
05:00 +11°C° 0 mm 7 mps 753 mmHg 87%
06:00 +12°C° 0 mm 7 mps 753 mmHg 86%
07:00 +12°C° 0 mm 7 mps 753 mmHg 85%
08:00 +12°C° 0 mm 7 mps 753 mmHg 84%
09:00 +15°C° 0 mm 8 mps 753 mmHg 79%
10:00 +16°C° 0 mm 8 mps 753 mmHg 73%
11:00 +18°C° 0 mm 9 mps 753 mmHg 68%
12:00 +17°C° 0.2 mm 8 mps 752 mmHg 70%
13:00 +17°C° 0.2 mm 8 mps 751 mmHg 72%
14:00 +17°C° 0.2 mm 8 mps 751 mmHg 74%
15:00 +16°C° 0.4 mm 8 mps 751 mmHg 78%
16:00 +16°C° 0.4 mm 7 mps 751 mmHg 82%
17:00 +15°C° 0.4 mm 7 mps 751 mmHg 86%
18:00 +14°C° 0.4 mm 5 mps 751 mmHg 89%
19:00 +14°C° 0.4 mm 3 mps 751 mmHg 92%
20:00 +14°C° 0.4 mm 1 mps 751 mmHg 94%
21:00 +14°C° 1 mm 2 mps 751 mmHg 95%
22:00 +13°C° 1 mm 3 mps 751 mmHg 95%
23:00 +13°C° 1 mm 3 mps 750 mmHg 95%
Show more